Kenai, AK

8:54 AM AKST on December 05, 2019 (GMT -0900)
Kenai Municipal

Weather History for PAEN - October, 2019

Change the Weather History Date:

Thursday, October 24, 2019

  Actual Average Record
Temperature  
Mean Temperature 44 °F -  
Max Temperature 50 °F 37 °F 50 °F (2019)
Min Temperature 39 °F 22 °F -6 °F (2001)
Degree Days  
Heating Degree Days 20    
Moisture  
Dew Point 39 °F    
Average Humidity 83    
Maximum Humidity 93    
Minimum Humidity 64    
Precipitation  
Precipitation 0.22 in - - ()
Sea Level Pressure  
Sea Level Pressure 29.47 in    
Wind  
Wind Speed 5 mph (SE)    
Max Wind Speed 12 mph    
Max Gust Speed -    
Visibility 10 miles    
Events Rain    
Averages and records for this station are not official NWS values.
T = Trace of Precipitation, MM = Missing Value Source: NWS Daily Summary

Daily Weather History Graph

Daily Weather History Graph

Search for Another Location

Airport or City:

Astronomy

Oct. 24, 2019 Rise Set
Actual Time 9:08 AM AKDT 6:28 PM AKDT
Civil Twilight 8:24 AM AKDT 7:12 PM AKDT
Nautical Twilight 7:34 AM AKDT 8:02 PM AKDT
Astronomical Twilight 6:45 AM AKDT 8:50 PM AKDT
Moon 3:18 AM AKDT (10/24) 6:20 PM AKDT (10/24)
Length of Visible Light 10h 48m
Length of Day
9h 19m
Waning Crescent, 15% of the Moon is Illuminated
Oct 24
Waning Crescent
Oct 27
New
Nov 4
First Quarter
Nov 12
Full
Nov 19
Last Quarter

Hourly Weather History & Observations

Time (AKDT) Temp. Windchill Dew Point Humidity Pressure Visibility Wind Dir Wind Speed Gust Speed Precip Events Conditions
12:53 AM 43.0 °F 40.3 °F 39.0 °F 86% 29.22 in 10.0 mi East 4.6 mph - 0.04 in Rain Light Rain
1:53 AM 42.1 °F 38.4 °F 39.9 °F 92% 29.24 in 10.0 mi East 5.8 mph - 0.04 in Rain Light Rain
3:53 AM 43.0 °F 39.5 °F 39.0 °F 86% 29.28 in 10.0 mi ESE 5.8 mph - 0.02 in Rain Light Rain
4:53 AM 43.0 °F 39.5 °F 39.0 °F 86% 29.29 in 10.0 mi ESE 5.8 mph - 0.04 in Rain Light Rain
5:53 AM 42.1 °F 38.4 °F 39.0 °F 89% 29.31 in 10.0 mi East 5.8 mph - 0.03 in Rain Light Rain
6:53 AM 42.1 °F 40.2 °F 39.0 °F 89% 29.32 in 10.0 mi East 3.5 mph - 0.00 in Rain Light Rain
7:53 AM 39.9 °F - 37.9 °F 93% 29.33 in 10.0 mi Calm Calm - 0.00 in   Overcast
8:53 AM 41.0 °F 39.0 °F 39.0 °F 93% 29.35 in 10.0 mi East 3.5 mph - 0.01 in Rain Light Rain
9:53 AM 41.0 °F 38.0 °F 37.9 °F 89% 29.37 in 10.0 mi East 4.6 mph - 0.00 in   Overcast
10:53 AM 44.1 °F 42.5 °F 39.9 °F 85% 29.39 in 10.0 mi East 3.5 mph - 0.00 in   Overcast
11:53 AM 46.0 °F 43.1 °F 42.1 °F 86% 29.41 in 10.0 mi ENE 5.8 mph - N/A   Scattered Clouds
12:53 PM 48.0 °F - 39.9 °F 74% 29.43 in 10.0 mi Calm Calm - N/A   Scattered Clouds
1:53 PM 48.9 °F - 37.0 °F 64% 29.45 in 10.0 mi South 3.5 mph - N/A   Mostly Cloudy
2:27 PM 48.0 °F - 39.0 °F 71% 29.44 in 10.0 mi West 3.5 mph - N/A   Overcast
2:53 PM 50.0 °F - 39.0 °F 66% 29.46 in 10.0 mi Variable 3.5 mph - N/A   Mostly Cloudy
3:53 PM 48.0 °F - 39.0 °F 71% 29.47 in 10.0 mi WNW 5.8 mph - N/A   Mostly Cloudy
4:00 PM 48.0 °F - 39.0 °F 71% 29.46 in 10.0 mi WNW 5.8 mph - N/A   Mostly Cloudy
4:53 PM 46.0 °F 43.1 °F 37.9 °F 73% 29.48 in 10.0 mi NNE 5.8 mph - N/A   Overcast
5:53 PM 44.1 °F 42.5 °F 39.0 °F 82% 29.50 in 10.0 mi ENE 3.5 mph - N/A   Overcast
6:13 PM 44.1 °F 38.1 °F 39.0 °F 82% 29.51 in 10.0 mi SSW 11.5 mph - 0.00 in Rain Light Rain
6:53 PM 43.0 °F 41.3 °F 39.9 °F 89% 29.53 in 10.0 mi SSW 3.5 mph - 0.02 in Rain Light Rain
7:53 PM 43.0 °F - 39.0 °F 86% 29.56 in 10.0 mi Calm Calm - 0.01 in Rain Light Rain
8:28 PM 42.1 °F 39.2 °F 39.0 °F 89% 29.57 in 10.0 mi SE 4.6 mph - 0.01 in Rain Light Rain
8:53 PM 42.1 °F 39.2 °F 39.0 °F 89% 29.59 in 10.0 mi SE 4.6 mph - 0.01 in   Overcast
9:36 PM 42.1 °F 37.7 °F 39.0 °F 89% 29.60 in 9.0 mi SSE 6.9 mph - 0.00 in Rain Light Rain
9:53 PM 42.1 °F 37.7 °F 39.0 °F 89% 29.62 in 10.0 mi SSE 6.9 mph - 0.00 in Rain Light Rain
10:40 PM 41.0 °F 35.2 °F 37.0 °F 86% 29.64 in 10.0 mi SSE 9.2 mph - 0.00 in Rain Light Rain
10:53 PM 41.0 °F 34.7 °F 37.0 °F 86% 29.65 in 10.0 mi SSE 10.4 mph - 0.00 in   Overcast
11:13 PM 41.0 °F 34.3 °F 36.0 °F 82% 29.65 in 10.0 mi SSE 11.5 mph - N/A   Overcast
11:39 PM 39.9 °F 33.4 °F 35.1 °F 83% 29.67 in 10.0 mi SSE 10.4 mph - N/A   Mostly Cloudy
11:53 PM 39.9 °F 32.9 °F 35.1 °F 83% 29.69 in 10.0 mi SSE 11.5 mph - N/A   Mostly Cloudy